Change the Weather History Date:

Sunday, December 16, 2012

  Actual Average Record
Temperature  
Mean Temperature 46 °F -  
Max Temperature 50 °F 38 °F 65 °F (1971)
Min Temperature 42 °F 23 °F -5 °F (1951)
Degree Days  
Heating Degree Days 19    
Moisture  
Dew Point 39 °F    
Average Humidity 76    
Maximum Humidity 100    
Minimum Humidity 57    
Precipitation  
Precipitation 0.46 in - - ()
Sea Level Pressure  
Sea Level Pressure 29.78 in    
Wind  
Wind Speed 10 mph (SSE)    
Max Wind Speed 14 mph    
Max Gust Speed 22 mph    
Visibility 10 miles    
Events      
Averages and records for this station are not official NWS values.
T = Trace of Precipitation, MM = Missing Value Source: NWS Daily Summary

Daily Weather History Graph

Daily Weather History Graph

Search for Another Location

Airport or City:

Trip Planner

Search our weather history database for the weather conditions in past years. The results will help you decide how hot, cold, wet, or windy it might be!

Date:

Astronomy

Dec. 16, 2012 Rise Set
Actual Time 7:39 AM EST 4:51 PM EST
Civil Twilight 7:08 AM EST 5:22 PM EST
Nautical Twilight 6:33 AM EST 5:57 PM EST
Astronomical Twilight 5:59 AM EST 6:31 PM EST
Moon 10:09 AM EST (12/16) 9:05 PM EST (12/16)
Length of Visible Light 10h 14m
Length of Day
9h 11m
Waxing Crescent, 16% of the Moon is Illuminated
Dec 16
Waxing Crescent
Dec 20
First Quarter
Dec 28
Full
Jan 4
Last Quarter
Jan 11
New

Hourly Weather History & Observations

Time (EST) Temp. Windchill Dew Point Humidity Pressure Visibility Wind Dir Wind Speed Gust Speed Precip Events Conditions
12:15 AM 42.8 °F 36.2 °F 28.4 °F 57% 29.88 in 10.0 mi SE 12.7 mph 21.9 mph N/A   Overcast
12:35 AM 42.8 °F 36.6 °F 28.4 °F 57% 29.88 in 10.0 mi SE 11.5 mph - N/A   Overcast
12:55 AM 42.8 °F 35.8 °F 28.4 °F 57% 29.88 in 10.0 mi SE 13.8 mph - N/A   Overcast
1:15 AM 42.8 °F 37.0 °F 28.4 °F 57% 29.87 in 10.0 mi SSE 10.4 mph - N/A   Overcast
1:55 AM 42.8 °F 36.6 °F 28.4 °F 57% 29.86 in 10.0 mi SSE 11.5 mph 18.4 mph N/A   Overcast
2:15 AM 42.8 °F 37.5 °F 28.4 °F 57% 29.85 in 10.0 mi SSE 9.2 mph - N/A   Overcast
2:35 AM 42.8 °F 36.6 °F 28.4 °F 57% 29.85 in 10.0 mi SSE 11.5 mph - N/A   Overcast
2:55 AM 42.8 °F 36.6 °F 28.4 °F 57% 29.85 in 10.0 mi SSE 11.5 mph - N/A   Overcast
3:15 AM 42.8 °F 36.6 °F 28.4 °F 57% 29.84 in 10.0 mi SSE 11.5 mph - N/A   Overcast
3:55 AM 42.8 °F 37.0 °F 28.4 °F 57% 29.83 in 10.0 mi SSE 10.4 mph 18.4 mph N/A   Overcast
4:15 AM 44.6 °F 39.7 °F 30.2 °F 57% 29.83 in 10.0 mi SSE 9.2 mph - N/A   Overcast
4:35 AM 44.6 °F 39.2 °F 30.2 °F 57% 29.83 in 10.0 mi SSE 10.4 mph - N/A   Overcast
4:55 AM 44.6 °F 39.7 °F 30.2 °F 57% 29.82 in 10.0 mi SSE 9.2 mph - N/A   Overcast
5:15 AM 44.6 °F 39.2 °F 30.2 °F 57% 29.82 in 10.0 mi SSE 10.4 mph - N/A   Overcast
5:35 AM 44.6 °F 39.7 °F 30.2 °F 57% 29.82 in 10.0 mi SSE 9.2 mph - N/A   Overcast
5:55 AM 44.6 °F 40.2 °F 30.2 °F 57% 29.82 in 10.0 mi SSE 8.1 mph - N/A   Overcast
6:15 AM 44.6 °F 41.4 °F 32.0 °F 61% 29.83 in 10.0 mi SSE 5.8 mph - N/A   Overcast
6:35 AM 44.6 °F 42.2 °F 32.0 °F 61% 29.83 in 10.0 mi SSE 4.6 mph - N/A   Overcast
6:55 AM 44.6 °F 39.7 °F 32.0 °F 61% 29.82 in 10.0 mi SSE 9.2 mph - N/A   Overcast
7:15 AM 44.6 °F 39.7 °F 33.8 °F 66% 29.83 in 10.0 mi SSE 9.2 mph - N/A   Overcast
7:35 AM 44.6 °F 39.7 °F 33.8 °F 66% 29.83 in 10.0 mi SSE 9.2 mph - N/A   Overcast
7:55 AM 44.6 °F 40.2 °F 33.8 °F 66% 29.83 in 10.0 mi SSE 8.1 mph - N/A   Overcast
8:15 AM 44.6 °F 40.2 °F 33.8 °F 66% 29.83 in 10.0 mi SSE 8.1 mph - N/A   Overcast
8:35 AM 44.6 °F 40.7 °F 33.8 °F 66% 29.82 in 10.0 mi SSE 6.9 mph - N/A   Overcast
8:55 AM 46.4 °F 42.9 °F 33.8 °F 62% 29.83 in 10.0 mi SSE 6.9 mph - N/A   Overcast
9:15 AM 46.4 °F 42.9 °F 33.8 °F 62% 29.82 in 10.0 mi SSE 6.9 mph - N/A   Overcast
9:35 AM 46.4 °F 42.4 °F 33.8 °F 62% 29.82 in 10.0 mi SSE 8.1 mph - N/A   Overcast
9:55 AM 46.4 °F 41.9 °F 35.6 °F 66% 29.82 in 10.0 mi SSE 9.2 mph - N/A   Overcast
10:15 AM 46.4 °F 42.9 °F 37.4 °F 71% 29.82 in 10.0 mi SSE 6.9 mph - N/A   Overcast
10:35 AM 46.4 °F 42.4 °F 35.6 °F 66% 29.82 in 10.0 mi SSE 8.1 mph - N/A   Overcast
10:55 AM 46.4 °F 42.9 °F 35.6 °F 66% 29.81 in 10.0 mi SSE 6.9 mph - N/A   Overcast
11:15 AM 48.2 °F - 37.4 °F 66% 29.80 in 10.0 mi SSE 9.2 mph - N/A   Overcast
11:35 AM 46.4 °F 42.4 °F 37.4 °F 71% 29.80 in 8.0 mi SSE 8.1 mph - N/A   Overcast
11:55 AM 46.4 °F 41.9 °F 39.2 °F 76% 29.80 in 9.0 mi SSE 9.2 mph - 0.02 in   Mostly Cloudy
12:15 PM 46.4 °F 41.5 °F 39.2 °F 76% 29.79 in 10.0 mi SSE 10.4 mph - N/A   Overcast
12:35 PM 46.4 °F 41.9 °F 41.0 °F 81% 29.77 in 10.0 mi SSE 9.2 mph - N/A   Overcast
12:55 PM 46.4 °F 41.5 °F 42.8 °F 87% 29.76 in 10.0 mi SSE 10.4 mph - N/A   Overcast
1:15 PM 48.2 °F - 42.8 °F 82% 29.75 in 10.0 mi SE 12.7 mph - N/A   Overcast
1:35 PM 48.2 °F - 42.8 °F 82% 29.75 in 10.0 mi SSE 9.2 mph - N/A   Overcast
1:55 PM 48.2 °F - 42.8 °F 82% 29.75 in 10.0 mi SSE 10.4 mph - N/A   Overcast
2:15 PM 48.2 °F - 42.8 °F 82% 29.74 in 10.0 mi SSE 9.2 mph - N/A   Overcast
2:35 PM 48.2 °F - 44.6 °F 87% 29.73 in 8.0 mi SSE 9.2 mph - N/A   Overcast
2:55 PM 48.2 °F - 44.6 °F 87% 29.73 in 10.0 mi South 5.8 mph - N/A   Overcast
3:15 PM 46.4 °F 45.2 °F 44.6 °F 93% 29.73 in 10.0 mi WSW 3.5 mph - N/A   Overcast
3:35 PM 46.4 °F 42.4 °F 44.6 °F 93% 29.74 in 10.0 mi WNW 8.1 mph - N/A   Overcast
3:55 PM 48.2 °F - 44.6 °F 87% 29.72 in 10.0 mi SSE 10.4 mph - N/A   Mostly Cloudy
4:15 PM 48.2 °F - 44.6 °F 87% 29.72 in 10.0 mi SSE 10.4 mph - N/A   Mostly Cloudy
4:35 PM 48.2 °F - 44.6 °F 87% 29.72 in 10.0 mi SSE 10.4 mph - N/A   Overcast
4:55 PM 48.2 °F - 44.6 °F 87% 29.72 in 10.0 mi SSE 11.5 mph - N/A   Overcast
5:15 PM 48.2 °F - 46.4 °F 93% 29.72 in 10.0 mi SSE 9.2 mph - N/A   Overcast
5:35 PM 48.2 °F - 46.4 °F 93% 29.72 in 10.0 mi SSE 8.1 mph - N/A   Overcast
5:55 PM 48.2 °F - 46.4 °F 93% 29.72 in 10.0 mi SSE 8.1 mph - N/A   Overcast
6:15 PM 48.2 °F - 46.4 °F 93% 29.72 in 10.0 mi SSE 6.9 mph - N/A   Overcast
6:35 PM 48.2 °F - 46.4 °F 93% 29.72 in 10.0 mi SSE 8.1 mph - N/A   Overcast
6:55 PM 48.2 °F - 46.4 °F 93% 29.71 in 10.0 mi SSE 8.1 mph - N/A   Overcast
7:15 PM 50.0 °F - 46.4 °F 87% 29.71 in 10.0 mi SSE 6.9 mph - N/A   Overcast
7:35 PM 48.2 °F - 46.4 °F 93% 29.71 in 10.0 mi SE 8.1 mph - N/A   Overcast
7:55 PM 48.2 °F - 46.4 °F 93% 29.71 in 10.0 mi SSE 8.1 mph - N/A   Overcast
8:15 PM 48.2 °F - 46.4 °F 93% 29.71 in 7.0 mi SE 5.8 mph - N/A   Overcast
8:35 PM 48.2 °F - 46.4 °F 93% 29.72 in 4.0 mi South 4.6 mph - 0.09 in   Mostly Cloudy
8:55 PM 50.0 °F - 48.2 °F 94% 29.71 in 9.0 mi South 6.9 mph - 0.16 in   Overcast
9:15 PM 50.0 °F - 48.2 °F 94% 29.71 in 10.0 mi South 6.9 mph - N/A   Overcast
9:35 PM 50.0 °F - 48.2 °F 94% 29.71 in 10.0 mi SSE 6.9 mph - N/A   Overcast
9:55 PM 48.2 °F - 48.2 °F 100% 29.70 in 10.0 mi SSE 8.1 mph - N/A   Overcast
10:15 PM 50.0 °F - 48.2 °F 94% 29.71 in 9.0 mi Calm Calm - N/A   Overcast
10:35 PM 48.2 °F - 46.4 °F 93% 29.72 in 0.5 mi WSW 10.4 mph 20.7 mph 0.11 in   Overcast
10:55 PM 48.2 °F - 46.4 °F 93% 29.72 in 10.0 mi SW 6.9 mph - 0.21 in   Overcast
11:15 PM 48.2 °F - 46.4 °F 93% 29.71 in 9.0 mi SW 5.8 mph - 0.04 in   Overcast
11:35 PM 48.2 °F - 46.4 °F 93% 29.71 in 10.0 mi SSW 8.1 mph - 0.06 in   Overcast
11:55 PM 48.2 °F - 46.4 °F 93% 29.71 in 9.0 mi SW 6.9 mph - 0.07 in   Overcast